Voltar ao catálogo

MAUVE

AtivoCiênciaSSO
NORAD 66756·PAYLOAD·🇭🇺 Hungary

Lançado Nov 28, 2025 de Vandenberg Space Force Base

Loading…

Próximas Passagens (próximas 24 horas)

TLE

AtualizadoSource: Space-Track

Época: Sep 14, 2026, 10:58 UTC

1 66756U 25276CU  26257.45703461  .00005014  00000-0  22502-3 0  9998
2 66756  97.4133 329.8569 0002252  46.9173 313.2251 15.21636448 44007

Acompanhe MAUVE em tempo real com AllMySat

Download on the App Store